SCOUT A DEB, 2644

Orbit data source: Space-Track

SCOUT A DEB, 2644 is space debris in LEO originally from a launch on Thu, 19 May 1966 UTC launched from the Air Force Western Test Range (AFWTR). Debris objects in space refer to the collection of defunct objects orbiting the Earth. Examples of debris include non-operational satellites, rocket bodies, and fragments generated from explosions, collisions, or faulty payload assembly.

Loading next visibility...
SCOUT A DEB details
Identifier
2644, 1966-041D
Orbit
LEO
Last TLE update2 days ago
Origin
Flag of USUSN NAVAIR (US)
ManufacturerUnknown
MissionSpacecraft
Bus & MotorUnknown
MassUnknown
Launch date (UTC)
1966-05-19 (59 years ago)
Launch vehicleUnknown
Launch site
Air Force Western Test Range (AFWTR)
Object type
Payload
Rocket body
Debris
Shape & HBRUnknown
Radar Cross SectionSmall (<0.1 m²)

Expand to show TLE details & history

TLE from 2 days ago
0 SCOUT A DEB
1 02644U 66041D   25021.78628241  .00000509  00000-0  42590-3 0  9998
2 02644  90.1422  36.8556 0215286 115.9612 246.3908 13.76794498928311
Epoch: 2025-01-21T18:52Z
Definitive object data (Epoch: 2025-01-21T18:52:14.8Z)
Latitude0.00003°
Longitude-7.59358°
Altitude1,044.514 km
Speed7.296 km/s
True Right ascension02h 27m 25s
True Declination0° 00' 00"
Sunlit
Object was in daylight at TLE epoch
Visualization TLE readout
Latitude47.69658°
Longitude-7.72158°
Altitude907.802 km
Speed7.44 km/s
Apparent Right ascension03h 10m 44s
Apparent Declination7° 39' 25"
Sunlit
Object is in daylight
Visualization observer readout
Local Sidereal Time15:54:40
Azimuth14.573° NNE
Elevation-41.355°
Doppler factor1
Orbital elements
Apogee altitude1,130.531 km
Perigee altitude814.043 km
Semi-major axis7,350.424 km
Eccentricity0.0215286
Inclination90.1422°
RAAN36.8556°
Arg. of periapsis115.9612°
True anomaly244.15498°
Mean anomaly246.3908°
Eccentric anomaly245.27042°
Mean motion3.44409 °/min
BSTAR0.0004259
Orbital period104.53 mins
Loading maneuver chart data...
Loading historical data...
Loading historical data...
Loading historical data...
Loading historical data...
Loading historical data...
Loading historical data...
Loading historical data...

SCOUT A DEB Visibility forecast

Observer location: undefined°, undefined

Span
Click to sort rows by Start time (UTC) header in descending order
Start Az.
Max El. time (UTC)
Max El. Az.
Max El.
End time (UTC)
End Az.
11 mins2025-01-24 01:02:24.061Z172.45° S2025-01-24 01:08:24.061Z42.575° NE44.533°2025-01-24 01:13:24.061Z359.682° N
6 mins2025-01-24 12:01:24.061Z46.232° ENE2025-01-24 12:04:24.061Z88.802° E20.342°2025-01-24 12:07:24.061Z126.204° SE
8 mins2025-01-24 13:45:24.061Z337.434° NNW2025-01-24 13:48:24.061Z284.043° WNW33.59°2025-01-24 13:53:24.061Z211.255° SW
|